Tracking 25648 objects as of 17-May-2022
HD Live streaming from Space Station
objects crossing your sky now

COSMOS 2251 DEB

Track COSMOS 2251 DEB now!
10-day predictions


NORAD ID: 35446
Int'l Code: 1993-036AKQ
Perigee: 668.6 km
Apogee: 780.5 km
Inclination: 74.0 °
Period: 99.1 minutes
Semi major axis: 7095 km
RCS: 0.0088 m2 (small)
Launch date: June 16, 1993
Source: Commonwealth of Independent States (former USSR) (CIS)
Launch site: PLESETSK MISSILE AND SPACE COMPLEX (PKMTR)

Note: This is SATELLITE DEBRIS
aabbcc
Your satellite tracking list
Your tracking list is empty




NASA's NSSDC Master Catalog

Two Line Element Set (TLE):
1 35446U 93036AKQ 22137.60111331  .00000336  00000-0  86272-4 0  9995
2 35446  74.0468 261.2575 0078851 350.2151   9.7469 14.52531852690463
Source of the keplerian elements: AFSPC